Amsterdam, Netherlands

9:31 PM CEST on October 18, 2019 (GMT +0200)
Schiphol

Weather History for EHAM - August, 2019

Change the Weather History Date:

Thursday, August 22, 2019

  Actual Average Record
Temperature  
Mean Temperature 62 °F -  
Max Temperature 72 °F 65 °F 80 °F (2015)
Min Temperature 52 °F 52 °F 50 °F (1999)
Degree Days  
Heating Degree Days 3    
Growing Degree Days 12 (Base 50)    
Moisture  
Dew Point 52 °F    
Average Humidity 68    
Maximum Humidity 100    
Minimum Humidity 36    
Precipitation  
Precipitation 0.00 in - - ()
Sea Level Pressure  
Sea Level Pressure 30.27 in    
Wind  
Wind Speed 6 mph ()    
Max Wind Speed 16 mph    
Max Gust Speed -    
Visibility 10.1 miles    
Events Fog    
Averages and records for this station are not official NWS values.
T = Trace of Precipitation, MM = Missing Value Source: Averaged Metar Reports

Daily Weather History Graph

Daily Weather History Graph

Search for Another Location

Airport or City:

Astronomy

Aug. 22, 2019 Rise Set
Actual Time 6:34 AM CEST 8:51 PM CEST
Civil Twilight 5:57 AM CEST 9:28 PM CEST
Nautical Twilight 5:10 AM CEST 10:15 PM CEST
Astronomical Twilight 4:15 AM CEST 11:09 PM CEST
Moon 11:42 PM CEST (8/22) 1:42 PM CEST (8/22)
Length of Visible Light 15h 30m
Length of Day
14h 16m
Waning Gibbous, 62% of the Moon is Illuminated
Aug 22
Waning Gibbous
Aug 23
Last Quarter
Aug 30
New
Sep 6
First Quarter
Sep 14
Full

Hourly Weather History & Observations

Time (CEST) Temp. Dew Point Humidity Pressure Visibility Wind Dir Wind Speed Gust Speed Precip Events Conditions
12:00 AM 56 °F 52 °F 83% 30.32 in 17 mi East 2.2 mph - -   Partly Cloudy
12:25 AM 55.4 °F 53.6 °F 94% 30.30 in - ENE 1.2 mph - N/A   Clear
12:55 AM 53.6 °F 51.8 °F 94% 30.30 in - East 2.3 mph - N/A   Clear
1:00 AM 54 °F 53 °F 94% 30.31 in 13 mi Calm Calm - -   Partly Cloudy
1:25 AM 55.4 °F 53.6 °F 94% 30.30 in - East 1.2 mph - N/A   Clear
1:55 AM 51.8 °F 50.0 °F 94% 30.27 in - East 2.3 mph - N/A   Clear
2:00 AM 52 °F 51 °F 97% 30.30 in 12 mi East 2.2 mph - -   Partly Cloudy
2:25 AM 53.6 °F 53.6 °F 100% 30.27 in - East 2.3 mph - N/A   Clear
2:55 AM 53.6 °F 53.6 °F 100% 30.27 in - East 2.3 mph - N/A   Clear
3:00 AM 54 °F 53 °F 95% 30.29 in 6 mi East 2.2 mph - -   Partly Cloudy
3:25 AM 53.6 °F 53.6 °F 100% 30.27 in - ESE 2.3 mph - N/A   Clear
3:55 AM 53.6 °F 51.8 °F 94% 30.27 in 6.2 mi Variable 2.3 mph - N/A Fog Shallow Fog
4:25 AM 53.6 °F 50.0 °F 88% 30.27 in 6.2 mi Variable 2.3 mph - N/A Fog Shallow Fog
4:55 AM 55.4 °F 50.0 °F 82% 30.27 in - SSE 6.9 mph - N/A   Clear
5:25 AM 53.6 °F 50.0 °F 88% 30.24 in - Variable 2.3 mph - N/A   Clear
5:55 AM 53.6 °F 50.0 °F 88% 30.24 in - Variable 2.3 mph - N/A   Clear
6:00 AM 53 °F 49 °F 84% 30.26 in 10 mi SSE 2.2 mph - -   Partly Cloudy
6:25 AM 53.6 °F 48.2 °F 82% 30.24 in - SSE 3.5 mph - N/A   Clear
6:55 AM 53.6 °F 50.0 °F 88% 30.24 in - South 3.5 mph - N/A   Clear
7:00 AM 54 °F 49 °F 79% 30.26 in 9 mi South 4.5 mph - -   Partly Cloudy
7:25 AM 53.6 °F 50.0 °F 88% 30.24 in - South 4.6 mph - N/A   Clear
7:55 AM 55.4 °F 50.0 °F 82% 30.24 in - South 4.6 mph - N/A   Clear
8:00 AM 56 °F 51 °F 77% 30.27 in 10 mi South 4.5 mph - -   Partly Cloudy
8:25 AM 57.2 °F 53.6 °F 88% 30.27 in - South 4.6 mph - N/A   Clear
8:55 AM 60.8 °F 53.6 °F 77% 30.24 in - South 4.6 mph - N/A   Clear
9:00 AM 62 °F 53 °F 63% 30.27 in 9 mi South 6.7 mph - -   Partly Cloudy
9:25 AM 64.4 °F 55.4 °F 73% 30.27 in - SSW 5.8 mph - N/A   Clear
9:55 AM 66.2 °F 55.4 °F 68% 30.27 in - SSW 8.1 mph - N/A   Clear
10:00 AM 66 °F 56 °F 61% 30.27 in 9 mi SSW 8.9 mph - -   Partly Cloudy
10:25 AM 68.0 °F 55.4 °F 64% 30.27 in - WSW 9.2 mph - N/A   Clear
10:55 AM 69.8 °F 57.2 °F 64% 30.27 in - SW 9.2 mph - N/A   Clear
11:00 AM 69 °F 56 °F 54% 30.27 in 9 mi SW 11.2 mph - -   Partly Cloudy
11:25 AM 69.8 °F 55.4 °F 60% 30.27 in 6.2 mi SW 11.5 mph - N/A   Partly Cloudy
11:55 AM 71.6 °F 57.2 °F 60% 30.27 in 6.2 mi West 12.7 mph - N/A   Partly Cloudy
12:25 PM 71.6 °F 57.2 °F 60% 30.27 in 6.2 mi WSW 11.5 mph - N/A   Partly Cloudy
12:55 PM 71.6 °F 59.0 °F 64% 30.27 in 6.2 mi WSW 12.7 mph - N/A   Partly Cloudy
1:00 PM 72 °F 56 °F 48% 30.28 in 8 mi WSW 13.4 mph - -   Partly Cloudy
1:25 PM 71.6 °F 51.8 °F 50% 30.27 in - West 15.0 mph - N/A   Clear
1:55 PM 71.6 °F 51.8 °F 50% 30.27 in 6.2 mi WSW 15.0 mph - N/A   Partly Cloudy
2:00 PM 71 °F 53 °F 41% 30.28 in 17 mi WSW 13.4 mph - -   Partly Cloudy
2:25 PM 71.6 °F 51.8 °F 50% 30.27 in 6.2 mi West 13.8 mph - N/A   Partly Cloudy
2:55 PM 71.6 °F 53.6 °F 53% 30.27 in 6.2 mi West 13.8 mph - N/A   Partly Cloudy
3:00 PM 71 °F 53 °F 42% 30.28 in 15 mi West 15.7 mph - -   Partly Cloudy
3:25 PM 71.6 °F 51.8 °F 50% 30.24 in 6.2 mi WSW 13.8 mph - N/A   Partly Cloudy
3:55 PM 71.6 °F 51.8 °F 50% 30.24 in - West 13.8 mph - N/A   Clear
4:00 PM 72 °F 51 °F 37% 30.27 in 19 mi West 13.4 mph - -   Partly Cloudy
4:25 PM 71.6 °F 51.8 °F 50% 30.24 in - WSW 12.7 mph - N/A   Clear
4:55 PM 71.6 °F 51.8 °F 50% 30.27 in - West 13.8 mph - N/A   Clear
5:00 PM 71 °F 53 °F 41% 30.27 in 19 mi West 13.4 mph - -   Partly Cloudy
5:25 PM 69.8 °F 51.8 °F 53% 30.27 in - West 15.0 mph - N/A   Clear
5:55 PM 69.8 °F 46.4 °F 43% 30.27 in - WSW 13.8 mph - N/A   Clear
6:00 PM 70 °F 49 °F 36% 30.27 in 22 mi WSW 13.4 mph - -   Mostly Cloudy
6:25 PM 69.8 °F 48.2 °F 46% 30.27 in - WSW 13.8 mph - N/A   Clear
6:55 PM 68.0 °F 48.2 °F 49% 30.27 in - WSW 11.5 mph - N/A   Clear
7:00 PM 68 °F 47 °F 36% 30.27 in 25 mi WSW 13.4 mph - -   Partly Cloudy
7:25 PM 68.0 °F 48.2 °F 49% 30.27 in - WSW 11.5 mph - N/A   Clear
7:55 PM 66.2 °F 50.0 °F 56% 30.27 in - WSW 9.2 mph - N/A   Clear
8:25 PM 64.4 °F 50.0 °F 59% 30.24 in - SW 10.4 mph - N/A   Clear
8:55 PM 62.6 °F 48.2 °F 59% 30.24 in - SSW 8.1 mph - N/A   Clear
9:00 PM 62 °F 48 °F 50% 30.27 in 28 mi SSW 6.7 mph - -   Overcast
9:25 PM 60.8 °F 48.2 °F 63% 30.27 in - SSW 6.9 mph - N/A   Clear
9:55 PM 59.0 °F 50.0 °F 72% 30.27 in - South 5.8 mph - N/A   Clear
10:25 PM 59.0 °F 50.0 °F 72% 30.27 in - South 8.1 mph - N/A   Clear
10:55 PM 59.0 °F 51.8 °F 77% 30.27 in - South 4.6 mph - N/A   Clear
11:00 PM 60 °F 51 °F 65% 30.28 in 19 mi South 4.5 mph - -   Scattered Clouds
11:55 PM 57.2 °F 50.0 °F 77% 30.27 in - SW 8.1 mph - N/A   Clear